Home   Weather   Istanbul   Past weeks

Flag for Turkey Past Weather in Istanbul, Turkey — Yesterday and Last 2 Weeks

Now
54 °F

Passing clouds.


Feels Like: 51 °F
Forecast: 47 / 55 °F
Wind: 9 mph from Southwest

Location: Istanbul Ataturk Airport

Current Time: Dec 11, 2016 at 3:01:35 pm

Latest Report: Dec 11, 2016 at 2:20 pm


Visibility: N/A

Pressure: 30.09 "Hg

Humidity: 67%

Dew Point: 43 °F

Location of IstanbulLocation

Past Weather in Istanbul — Graph

°F

Istanbul Temperature Yesterday

Maximum temperature yesterday: 57 °F (at 1:50 pm)
Minimum temperature yesterday: 48 °F (at 3:20 am)
Average temperature yesterday: 51 °F

High & Low Weather Summary for the Past Weeks

 TemperatureHumidityPressure
High59 °F (Nov 27, 8:20 pm)94% (Nov 28, 12:20 am)30.72 "Hg (Nov 28, 12:20 am)
Low32 °F (Dec 6, 5:50 am)36% (Dec 10, 2:20 pm)29.74 "Hg (Dec 2, 5:20 pm)
Average46 °F68%30.21 "Hg
* Reported Nov 26 1:20 pm — Dec 11 1:50 pm, Istanbul, Weather by CustomWeather, © 2016

Note: Actual official high and low records may vary slightly from our data, if they occured in-between our weather recording intervals... More about our weather records

Advertising

Istanbul Weather History for the Previous 24 Hours

Scroll right to see more
 ConditionsComfort  
Time TempWeatherWind HumidityBarometerVisibility
1:50 pm
Sun, Dec 11
54 °FSunny.10 mph67%30.12 "Hg10 mi
1:20 pm54 °FSunny.12 mph67%30.12 "Hg10 mi
12:50 pm54 °FSunny.13 mph63%30.12 "Hg10 mi
12:20 pm54 °FPassing clouds.12 mph63%30.15 "HgN/A
11:50 am54 °FSunny.12 mph63%30.15 "Hg10 mi
11:20 am54 °FSunny.12 mph67%30.15 "Hg10 mi
10:50 am52 °FSunny.12 mph72%30.15 "Hg10 mi
10:20 am52 °FSunny.12 mph67%30.15 "Hg10 mi
9:50 am52 °FSunny.10 mph67%30.15 "Hg10 mi
8:50 am50 °FSunny.10 mph71%30.15 "Hg10 mi
8:20 am50 °FSunny.12 mph71%30.15 "Hg10 mi
7:50 am50 °FClear.12 mph76%30.15 "Hg10 mi
7:20 am50 °FClear.12 mph71%30.15 "Hg10 mi
6:50 am50 °FClear.12 mph71%30.15 "Hg10 mi
6:20 am50 °FClear.12 mph71%30.15 "Hg10 mi
5:50 am50 °FClear.15 mph71%30.15 "Hg10 mi
5:20 am50 °FClear.13 mph76%30.15 "Hg10 mi
4:50 am50 °FClear.13 mph76%30.15 "Hg10 mi
4:20 am50 °FClear.12 mph71%30.15 "Hg10 mi
3:50 am50 °FClear.10 mph76%30.18 "Hg10 mi
3:20 am50 °FPassing clouds.10 mph76%30.18 "HgN/A
2:50 am50 °FPassing clouds.12 mph76%30.18 "HgN/A
2:20 am50 °FClear.10 mph82%30.18 "Hg10 mi
1:50 am50 °FClear.10 mph76%30.18 "Hg10 mi
12:50 am48 °FClear.9 mph87%30.18 "Hg10 mi
12:20 am50 °FPassing clouds.8 mph82%30.21 "HgN/A
11:50 pm
Sat, Dec 10
48 °FClear.6 mph82%30.21 "Hg10 mi
11:20 pm48 °FClear.6 mph82%30.21 "Hg10 mi
10:50 pm48 °FClear.5 mph82%30.21 "Hg10 mi
10:20 pm48 °FClear.6 mph82%30.21 "Hg10 mi
9:50 pm48 °FClear.6 mph82%30.21 "Hg10 mi
9:20 pm48 °FClear.6 mph76%30.21 "Hg10 mi
8:50 pm50 °FPassing clouds.6 mph76%30.21 "HgN/A
8:20 pm50 °FClear.6 mph76%30.21 "Hg10 mi
7:50 pm50 °FClear.6 mph76%30.21 "Hg10 mi
7:20 pm50 °FPassing clouds.6 mph76%30.21 "HgN/A
6:50 pm50 °FClear.6 mph76%30.21 "Hg10 mi
6:20 pm50 °FClear.7 mph76%30.21 "Hg10 mi
5:50 pm50 °FClear.7 mph76%30.21 "Hg10 mi
5:20 pm52 °FSunny.8 mph67%30.21 "Hg10 mi
4:50 pm52 °FSunny.9 mph67%30.21 "Hg10 mi
4:20 pm54 °FPassing clouds.8 mph63%30.21 "HgN/A
3:50 pm54 °FSunny.8 mph63%30.21 "Hg10 mi
3:20 pm54 °FSunny.8 mph63%30.21 "Hg10 mi
Weather by CustomWeather, © 2016

See weather overviewHow to use our weather pages